This demonstration page uses our WeatherBlox Daily Observations layout. Learn more.

Left ArrowRight Arrow

39.01783, -85.05884

Hourly Observations for December 28, 2017

Temp ( °F °C ) Dew Point ( °F °C ) Humidity (%) Winds ( mph kmh ) Pressure ( in mb ) Visibility ( mi km ) Precip ( " mm )
12:52 am 00:52 Cloudy 10 -12.2 1 -17.2 67 67 NE 9 15 30.68 1039 10 16 0.00 0.00
1:52 am 01:52 Mostly Cloudy 10 -12.2 1 -17.2 67 67 NE 9 15 30.67 1039 10 16 0.00 0.00
2:52 am 02:52 Cloudy 10 -12.2 2 -16.7 69 69 NE 9 15 30.66 1038 10 16 0.00 0.00
3:52 am 03:52 Partly Cloudy 9 -12.8 1 -17.2 70 70 NNE 8 13 30.68 1039 10 16 0.00 0.00
4:52 am 04:52 Cloudy 9 -12.8 2 -16.7 73 73 ENE 7 11 30.66 1038 10 16 0.00 0.00
5:52 am 05:52 Cloudy 10 -12.2 2 -16.7 69 69 NNE 5 7 30.68 1039 10 16 0.00 0.00
6:52 am 06:52 Cloudy 10 -12.2 2 -16.7 69 69 NNE 8 13 30.69 1039 10 16 0.00 0.00
7:52 am 07:52 Cloudy 10 -12.2 3 -16.1 73 73 ENE 6 9 30.70 1040 10 16 0.00 0.00
8:52 am 08:52 Cloudy 11 -11.7 3 -16.1 70 70 E 10 17 30.67 1039 10 16 0.00 0.00
9:52 am 09:52 Cloudy 11 -11.7 3 -16.1 70 70 ENE 14 22 30.65 1038 10 16 0.00 0.00
10:52 am 10:52 Cloudy 12 -11.1 3 -16.1 67 67 E 9 15 30.67 1039 10 16 0.00 0.00
11:52 am 11:52 Cloudy 15 -9.4 4 -15.6 61 61 ESE 7 11 30.64 1038 10 16 0.00 0.00
12:52 pm 12:52 Mostly Cloudy 17 -8.3 4 -15.6 56 56 E 8 13 30.59 1036 10 16 0.00 0.00
1:52 pm 13:52 Mostly Sunny 18 -7.8 3 -16.1 52 52 E 8 13 30.54 1034 10 16 0.00 0.00
2:52 pm 14:52 Mostly Sunny 19 -7.2 3 -16.1 49 49 E 9 15 30.51 1033 10 16 0.00 0.00
3:52 pm 15:52 Mostly Sunny 20 -6.7 3 -16.1 48 48 E 8 13 30.48 1032 10 16 0.00 0.00
4:52 pm 16:52 Mostly Sunny 19 -7.2 3 -16.1 49 49 ESE 7 11 30.47 1032 10 16 0.00 0.00
5:52 pm 17:52 Partly Cloudy 17 -8.3 4 -15.6 56 56 E 5 7 30.47 1032 10 16 0.00 0.00
6:52 pm 18:52 Mostly Clear 17 -8.3 4 -15.6 56 56 E 7 11 30.46 1032 10 16 0.00 0.00
7:52 pm 19:52 Mostly Clear 16 -8.9 5 -15 62 62 E 3 6 30.45 1031 10 16 0.00 0.00
8:52 pm 20:52 Cloudy 16 -8.9 8 -13.3 71 71 Calm 30.45 1031 10 16 0.00 0.00
9:52 pm 21:52 Cloudy 18 -7.8 7 -13.9 62 62 NNE 3 6 30.44 1031 10 16 0.00 0.00
10:52 pm 22:52 Cloudy 18 -7.8 8 -13.3 65 65 E 5 7 30.41 1030 10 16 0.00 0.00
11:52 pm 23:52 Mostly Cloudy 16 -8.9 9 -12.8 74 74 SSW 3 6 30.39 1029 10 16 0.00 0.00

Powered by AerisWeather